Regional Weather Roundup
Issued by NWS

Home | Current Version | Previous Version | Graphics & Text | Print | Product List | Glossary On
Versions: 1 2 3 4 5 6 7 8 9 10 11 12 13 14 15 16 17 18 19 20 21 22 23 24 25 26 27 28 29 30 31 32 33 34 35 36 37 38 39 40 41 42 43 44 45 46 47 48 49 50
179
ASUS43 KDMX 242301
RWRIA

WEATHER ROUNDUP FOR IOWA
NATIONAL WEATHER SERVICE DES MOINES IA
500 PM CST FRI NOV 24 2017

NOTE: "FAIR" INDICATES FEW OR NO CLOUDS BELOW 12,000 FEET WITH NO
SIGNIFICANT WEATHER AND/OR OBSTRUCTIONS TO VISIBILITY.

* - THESE STATIONS ARE NOT NWS STATIONS...THUS NOT UNDER NWS
QUALITY CONTROL.  THEY ALSO DO NOT REPORT WEATHER SUCH
AS PRECIPITATION OR FOG.

IAZ001>003-012>014-020>022-031>034-043>046-250000-
   NORTHWEST IOWA

CITY           SKY/WX    TMP DP  RH WIND       PRES   REMARKS
CARROLL *      CLOUDY    59  39  47 NW31G40   29.64R
CHEROKEE *     PTCLDY    55  40  56 NW20G33   29.68R
DENISON *      CLOUDY    59  39  47 NW20G26   29.69R
LE MARS *      CLEAR     54  39  58 NW15G26   29.71R
ORANGE CITY *  CLEAR     54  37  54 N15G25    29.70R
SHELDON *      CLEAR     52  37  58 NW22G30   29.67R
SIOUX CITY     CLEAR     56  39  53 NW26G43   29.71R
SPENCER        PTCLDY    53  37  54 N25G35    29.66R
STORM LAKE *   PTCLDY    55  41  58 NW23      29.65R
$$

IAZ055>058-069>071-079>083-090>094-250000-
   SOUTHWEST IOWA

CITY           SKY/WX    TMP DP  RH WIND       PRES   REMARKS
ATLANTIC *     PTCLDY    63  39  42 NW12      29.65R
AUDUBON *      PTCLDY    63  36  36 NW21      29.66R
CLARINDA *     CLEAR     63  41  45 N9          N/A
COUNCIL BLFS * CLEAR     63  36  36 NW28G46   29.69R
CRESTON *      CLEAR     59  41  51 NW9       29.65R
HARLAN  *      CLOUDY    61  34  36 NW22G31   29.70R
LAMONI         CLOUDY    61  41  47 NW12      29.62R
RED OAK *      CLEAR     63  39  42 NW7       29.66R
SHENANDOAH *   CLEAR     64  39  39 N8G15     29.68R
$$

IAZ047>049-059>061-072>074-084-250000-
   CENTRAL IOWA

CITY           SKY/WX    TMP DP  RH WIND       PRES   REMARKS
AMES           CLEAR     59  42  53 NW9       29.56R
ANKENY *       CLEAR     61  41  48 NW7       29.58R
BOONE *        PTCLDY    63  37  39 NW13G21   29.57R
CHARITON *     CLOUDY    61  41  48 NW15G21   29.59R
DES MOINES     PTCLDY    61  41  47 NW6       29.58R
GRINNELL*      CLEAR     58  41  52 NW8       29.56R
KNOXVILLE *    CLEAR     63  41  45 NW13G18   29.57R
MARSHALLTOWN   CLEAR     55  41  59 NW7       29.53R
NEWTON *       CLEAR     59  41  51 N8        29.56R
PELLA *        CLEAR     61  41  48 NW8       29.58R
PERRY *          N/A     61  33  34 NW17G24   29.61R
$$

IAZ004>006-015-016-023>025-035-036-250000-
   NORTH CENTRAL IOWA

CITY           SKY/WX    TMP DP  RH WIND       PRES   REMARKS
ALGONA *       MOCLDY    55  43  62 NW16G29   29.61R
CLARION *      MOCLDY    57  41  54 NW25G39   29.58R
ESTHERVILLE    PTCLDY    50  40  68 NW22G32   29.63R
FORT DODGE *   PTCLDY    57  42  57 NW12G24   29.62R
MASON CITY     LGT RAIN  52  45  77 NW22G36   29.56R
FOREST CITY *  CLOUDY    54  45  71 NW17G35   29.56R
WEBSTER CITY * CLOUDY    61  37  41 NW36G41   29.56R
IOWA FALLS *     N/A     59  41  52 W8        29.54R
$$

IAZ007>011-017>019-026>030-037>042-050>054-066-250000-
   NORTHEAST IOWA

CITY           SKY/WX    TMP DP  RH WIND       PRES   REMARKS
CEDAR RAPIDS   CLEAR     59  42  53 NW16      29.50R
CHARLES CITY * CLOUDY    59  41  51 W7        29.50R
CLINTON *      CLEAR     61  41  47 W15       29.46R
DECORAH *      CLOUDY    57  41  54 NW5       29.46R
DUBUQUE        CLEAR     59  41  51 W18G24    29.46R
MONTICELLO *   CLEAR     59  43  55 NW16G26   29.47R
OELWEIN *      MOCLDY    55  43  62 NW8       29.50R
WATERLOO       MOCLDY    58  40  51 W5        29.50R
$$

IAZ064-065-067-068-078-250000-
   EAST CENTRAL IOWA

CITY           SKY/WX    TMP DP  RH WIND       PRES   REMARKS
DAVENPORT      CLEAR     61  40  45 W12       29.49R
IOWA CITY      CLEAR     66  42  41 NW21G29   29.53R
MT. PLEASANT * CLEAR     61  38  42 W9        29.51R
MUSCATINE *    CLEAR     66  41  39 W20       29.49R
QUAD CITIES    CLEAR     68  39  34 SW16      29.45R
$$

IAZ062-063-075>077-085>089-095>099-250000-
   SOUTHEAST IOWA

CITY           SKY/WX    TMP DP  RH WIND       PRES   REMARKS
BURLINGTON     CLEAR     64  41  42 W8        29.50R
FAIRFIELD *    PTCLDY    64  41  42 NW13G23   29.53R
FORT MADISON * CLEAR     68  39  34 SW9       29.52R
KEOKUK *       CLEAR     68  39  34 SW12      29.52R
OSKALOOSA *      N/A     62  42  48 NW16      29.56R
OTTUMWA        CLEAR     64  42  44 NW16      29.55R
WASHINGTON *   CLEAR     64  43  45 NW21      29.53R
$$

ABBREVIATIONS USED IN REMARKS
   TC - TEMPERATURES IN CELSIUS
  WCI - WIND CHILL INDEX
   HX - HEAT INDEX
  VSB - VISIBILITY
$$





USA.gov is the U.S. government's official web portal to all federal, state and local government web resources and services.